Regional Weather Roundup
Issued by NWS

Home | Current Version | Previous Version | Graphics & Text | Print | Product List | Glossary On
Versions: 1 2 3 4 5 6 7 8 9 10 11 12 13 14 15 16 17 18 19 20 21 22 23 24 25 26 27 28 29 30 31 32 33 34 35 36 37 38 39 40 41 42 43 44 45 46 47 48 49 50
000
ASUS45 KPSR 241210
RWRAZ

ARIZONA HOURLY REGIONAL WEATHER ROUNDUP
NATIONAL WEATHER SERVICE PHOENIX AZ
500 AM MST TUE JAN 24 2017

NOTE: FAIR INDICATES FEW OR NO CLOUDS BELOW 12,000 FEET WITH NO
SIGNIFICANT WEATHER AND/OR OBSTRUCTIONS TO VISIBILITY.

AZZ001>003-036-241300-
NORTHWEST ARIZONA

CITY           SKY/WX    TMP DP  RH WIND       PRES   REMARKS
BULLHEAD CITY  MOCLDY    45  34  65 VRB3      29.84R
KINGMAN        CLOUDY    35  29  78 SW9       29.78R WCI  28
6HR MIN TEMP:  33; 6HR MAX TEMP:  36;

$$

AZZ004>008-015-016-018-241300-
NORTH CENTRAL ARIZONA

CITY           SKY/WX    TMP DP  RH WIND       PRES   REMARKS
WILLIAMS       FLURRIES  23  19  86 W10       29.70R WCI  12
PRESCOTT       CLOUDY    31  23  72 VRB3      29.75S
6HR MIN TEMP:  29; 6HR MAX TEMP:  33; 6HR PCP:  0.02;

FLAGSTAFF      LGT SNOW  21  18  88 SW17      29.68R FOG     WCI   7
6HR MIN TEMP:  21; 6HR MAX TEMP:  26; 6HR PCP:  0.27;

PAYSON         CLOUDY    30  28  93 NW6       29.79R WCI  24
PAGE           CLOUDY    33  26  75 SW5       29.65R WCI  29
6HR MIN TEMP:  32; 6HR MAX TEMP:  38; 6HR PCP:  0.03;

$$

AZZ009>014-017-241300-
NORTHEAST ARIZONA

CITY           SKY/WX    TMP DP  RH WIND       PRES   REMARKS
WINSLOW        CLEAR     31  28  89 W14       29.71S WCI  21
6HR MIN TEMP:  30; 6HR MAX TEMP:  36;

SAINT JOHNS    PTCLDY    30  26  85 SW16      29.68S WCI  19
6HR MIN TEMP:  30; 6HR MAX TEMP:  34; 6HR PCP:  0.06;

SHOW LOW       LGT SNOW  25  23  93 SW17      29.71S VSB 1   WCI  11
$$

AZZ023-241300-
GREATER PHOENIX AREA

CITY           SKY/WX    TMP DP  RH WIND       PRES   REMARKS
PHOENIX        PTCLDY    45  36  70 CALM      29.84R
6HR MIN TEMP:  44; 6HR MAX TEMP:  50;

BUCKEYE        CLEAR     39  39 100 CALM      29.87R
LUKE AFB       CLEAR     43  40  89 SW9       29.84R
6HR MIN TEMP:  43; 6HR MAX TEMP:  49;

DEER VALLEY    CLEAR     41  40  96 CALM      29.83R
6HR MIN TEMP:  41; 6HR MAX TEMP:  47;

SCOTTSDALE     MOCLDY    43  38  82 SW5       29.85R
6HR MIN TEMP:  43; 6HR MAX TEMP:  48; 6HR PCP: TRACE;

$$

AZZ027-028-241300-
SOUTHWEST MARICOPA COUNTY AND PINAL COUNTY

CITY           SKY/WX    TMP DP  RH WIND       PRES   REMARKS
CASA GRANDE    PTCLDY    43  37  79 NW3       29.87R
6HR MIN TEMP:  43; 6HR MAX TEMP:  48; 6HR PCP: TRACE;

GILA BEND      FAIR      42  36  76 S6        29.87S
6HR MIN TEMP:  42; 6HR MAX TEMP:  51;

$$

AZZ503-504-507>509-241300-
SOUTHEAST ARIZONA

CITY           SKY/WX    TMP DP  RH WIND       PRES   REMARKS
TUCSON         CLEAR     42  39  89 SE3       29.88S
6HR MIN TEMP:  42; 6HR MAX TEMP:  49; 6HR PCP:  0.12;

DAVIS-MONTHAN  CLEAR     41  39  90 S3        29.87R
6HR MIN TEMP:  41; 6HR MAX TEMP:  48; 6HR PCP:  0.06;

NOGALES        CLOUDY    37  34  89 W3        29.87R
6HR MIN TEMP:  37; 6HR MAX TEMP:  46; 6HR PCP:  0.06;

SIERRA VISTA   FLURRIES  34  32  95 W16       29.85R WCI  23
6HR MIN TEMP:  33; 6HR MAX TEMP:  44; 6HR PCP:  0.06;

DOUGLAS        PTCLDY    42  31  64 W13       29.84S
6HR MIN TEMP:  42; 6HR MAX TEMP:  51;

SAFFORD        MOCLDY    40  35  83 NW17G26   29.79S WCI  31
6HR MIN TEMP:  40; 6HR MAX TEMP:  48; 6HR PCP:  0.01;

$$

AZZ020-021-025-026-031-241300-
SOUTHWEST ARIZONA

CITY           SKY/WX    TMP DP  RH WIND       PRES   REMARKS
YUMA           CLEAR     46  35  65 CALM      29.90R
6HR MIN TEMP:  45; 6HR MAX TEMP:  51;

$$

CAZ031-033-041-043-047-048-061-241300-
SOUTHERN CALIFORNIA

CITY           SKY/WX    TMP DP  RH WIND       PRES   REMARKS
DOWNTOWN L.A.  PTCLDY    42  39  89 CALM      29.95R
6HR MIN TEMP:  42; 6HR MAX TEMP:  48;

L.A. AIRPORT   MOCLDY    43  40  89 SE5       29.95S
6HR MIN TEMP:  41; 6HR MAX TEMP:  50;

SAN DIEGO      MOCLDY    53  40  61 W8        29.98R
6HR MIN TEMP:  52; 6HR MAX TEMP:  54; 6HR PCP:  0.03;

BURBANK        PTCLDY    37  33  85 CALM      29.93S
6HR MIN TEMP:  37; 6HR MAX TEMP:  43;

ONTARIO        PTCLDY    39  39 100 CALM      29.93S
6HR MIN TEMP:  38; 6HR MAX TEMP:  44;

RIVERSIDE      CLEAR     40  39  97 CALM      29.94R
6HR MIN TEMP:  39; 6HR MAX TEMP:  45;

PALM SPRINGS   CLEAR     42  37  82 CALM      29.89R
6HR MIN TEMP:  38; 6HR MAX TEMP:  44;

EL CENTRO NAS  CLEAR     43  35  73 NW7       29.92R
6HR MIN TEMP:  43; 6HR MAX TEMP:  50;

IMPERIAL       CLEAR     44  36  73 W6        29.90R
6HR MIN TEMP:  44; 6HR MAX TEMP:  51;

BLYTHE         CLEAR     40  39  97 N6        29.88R
6HR MIN TEMP:  40; 6HR MAX TEMP:  50;

NEEDLES        MOCLDY    46  32  58 CALM      29.83R
6HR MIN TEMP:  45; 6HR MAX TEMP:  50;

$$

NVZ020-UTZ003-241300-
SOUTHERN NEVADA-UTAH

CITY           SKY/WX    TMP DP  RH WIND       PRES   REMARKS
LAS VEGAS      PTCLDY    40  29  64 N8        29.78R WCI  34
6HR MIN TEMP:  40; 6HR MAX TEMP:  44; 6HR PCP: TRACE;

SALT LAKE CITY CLOUDY    30  23  75 N6        29.70R WCI  24
6HR MIN TEMP:  30; 6HR MAX TEMP:  33; 6HR PCP:  0.01;

$$

NMZ009-TXZ055-241300-
NEW MEXICO-WEST TEXAS

CITY           SKY/WX    TMP DP  RH WIND       PRES   REMARKS
ALBUQUERQUE    MOCLDY    36  32  85 W8        29.67R WCI  30
6HR MIN TEMP:  35; 6HR MAX TEMP:  45; 6HR PCP: TRACE;

EL PASO        PTCLDY    54  29  38 W24G32    29.71S
6HR MIN TEMP:  52; 6HR MAX TEMP:  60;

$$


........................KEY........................
SKY/WX - SKY CONDITION/WEATHER
TMP    - TEMPERATURE IN FAHRENHEIT
DP     - DEW POINT IN FAHRENHEIT
RH     - RELATIVE HUMIDITY IN PERCENT
WIND   - DIRECTION AND SPEED IN MILES PER HOUR (MPH)
VRB    - VARIABLE WIND DIRECTION
PRES   - MEAN SEA LEVEL PRESSURE IN INCHES OF MERCURY
         F - FALLING PRESSURE   R - RISING PRESSURE
         S - STEADY PRESSURE
VSB    - VISIBILITY IN MILES
HX     - HEAT INDEX IN FAHRENHEIT
WCI    - WIND CHILL INDEX IN FAHRENHEIT
TC     - TEMPERATURE IN CELSIUS WHICH IS ALSO KNOWN AS
         TEMPERATURE IN CENTIGRADE
AFB    - AIR FORCE BASE
         LUKE AFB IS LUKE AIR FORCE BASE
         DAVIS-MONTHAN IS DAVIS-MONTHAN AIR FORCE BASE
NAS    - NAVAL AIR STATION
         EL CENTRO NAS IS EL CENTRO NAVAL AIR STATION
N/A    - NOT AVAILABLE




USA.gov is the U.S. government's official web portal to all federal, state and local government web resources and services.